Regional Weather Roundup
Issued by NWS

Home | Current Version | Previous Version | Text Only | Print | Product List | Glossary Off
Versions: 1 2 3 4 5 6 7 8 9 10 11 12 13 14 15 16 17 18 19 20 21 22 23 24 25 26 27 28 29 30 31 32 33 34 35 36 37 38 39 40 41 42 43 44 45 46 47 48 49 50

809
ASUS44 KJAN 200710
RWRMS

MISSISSIPPI HOURLY WEATHER ROUNDUP
NATIONAL WEATHER SERVICE JACKSON MS
200 AM CDT WED AUG 20 2014

NOTE: "FAIR: INDICATES FEW OR NO CLOUDS BELOW 12,000 FEET WITH NO
SIGNIFICANT WEATHER AND/OR OBSTRUCTIONS TO VISIBILITY.

MSZ001>002-007>008-010>013-018>021-025>028-034>036-200800-
NORTHWEST MISSISSIPPI

CITY           SKY/WX    TMP DP  RH WIND       PRES   REMARKS
CLARKSDALE     FAIR      75  75 100 CALM      29.91F
CLEVELAND      FAIR      73  72  96 SW3       29.92S
GREENWOOD      PTCLDY    76  73  91 SW3       29.93S
GREENVILLE       N/A    N/A N/A N/A MISG      29.92F
GRENADA        FAIR      73  72  94 CALM      29.93S
OLIVE BRANCH   CLEAR     79  79 100 SW8       29.91R
OXFORD         FAIR      75  70  83 CALM      29.94S
TUNICA         SUNNY     77  73  88 S5        29.91S
$$

MSZ003>006-009-014>017-022>024-029>033-037>039-200800-
NORTHEAST MISSISSIPPI

CITY           SKY/WX    TMP DP  RH WIND       PRES   REMARKS
BELMONT        FAIR      76  74  95 CALM      29.93S
COLUMBUS AFB   MOCLDY    74  71  88 S3        29.93F
CORINTH        FAIR      75  72  88 CALM      29.90F
GOLDN TRIANGLE MOCLDY    75  66  73 S3        29.95S
STARKVILLE     FAIR      73  68  83 CALM      29.94S
TUPELO         CLEAR     78  74  87 CALM      29.92F
$$

MSZ040-058-200800-
CENTRAL MISSISSIPPI

CITY           SKY/WX    TMP DP  RH WIND       PRES   REMARKS
JACKSON INTL   CLEAR     76  73  91 S3        29.96S
JACKSON HAWKNS CLEAR     77  72  84 W3        29.96F
MERIDIAN KEY   CLEAR     70  68  93 CALM      29.96F
MERIDIAN NAS   CLEAR     70  68  93 CALM      29.95F
RAYMOND        FAIR      73  68  83 CALM      29.96S HAZE
VICKSBURG      CLEAR     73  71  93 S3        29.95F
$$

MSZ059>079-200800-
SOUTH MISSISSIPPI

CITY           SKY/WX    TMP DP  RH WIND       PRES   REMARKS
BROOKHAVEN     FAIR      75  73  94 S5        29.99S
COLUMBIA       FOG       75  73  94 MISG      29.96F VSB 3/4
HATTIESBURG    CLEAR     77  73  87 CALM      29.98S
MCCOMB         MOCLDY    76  73  91 CALM      29.98F
NATCHEZ        PTCLDY    73  72  94 CALM      29.98S
PINE BELT      CLEAR     75  70  83 CALM      29.98S
$$

MSZ080>082-200800-
COASTAL MISSISSIPPI

CITY           SKY/WX    TMP DP  RH WIND       PRES   REMARKS
BILOXI         CLEAR     83  74  74 SW9       29.96F HX  90
PASCAGOULA     MOCLDY    78  75  90 CALM      29.97S
GULFPORT       CLEAR     78  75  90 N5        29.97R
$$



USA.gov is the U.S. government's official web portal to all federal, state and local government web resources and services.